Wind_Speed
31 30 30 29 28 26 24 22 20 18 17 15 13 11 9 8 8 8 9 9 10 10 10 10 10 10 10 10 12 14 14 14 14 16 17 15 12 9 9 8 10 8 8 7 7
34 34 33 31 30 28 27 25 23 22 20 19 17 15 13 11 10 10 10 10 11 12 12 12 13 13 14 15 16 17 18 17 17 18 17 16 13 11 11 10 12 12 10 8 8
37 36 35 34 32 31 29 27 26 25 23 22 20 19 17 15 13 12 12 13 14 14 15 16 17 18 19 19 20 20 21 21 21 20 17 15 15 14 14 13 13 14 14 12 12
39 38 37 36 34 33 32 31 29 27 26 25 24 22 21 20 18 17 16 15 15 16 17 18 20 21 22 23 22 22 23 23 23 21 18 16 16 16 17 14 15 15 15 16 17
42 41 40 38 38 36 35 34 32 31 29 28 27 26 25 24 23 21 19 18 18 19 19 19 20 21 22 23 24 24 25 25 25 23 20 18 19 18 19 19 17 17 17 17 18
45 44 43 42 41 40 39 37 36 34 33 32 31 30 29 27 27 25 24 22 22 22 23 24 24 25 26 27 27 27 28 28 27 25 23 23 22 21 20 20 19 19 19 18 18
48 46 45 45 44 43 42 41 40 38 37 36 35 34 33 32 30 29 28 27 27 27 27 28 29 30 30 30 30 30 30 29 28 27 26 27 24 23 20 21 21 21 20 20 20
52 50 49 48 47 46 45 44 43 42 41 40 39 39 36 35 34 33 32 32 31 31 31 32 31 30 31 31 31 31 31 31 30 30 28 31 26 23 23 23 23 22 22 22 22
56 54 52 51 50 49 49 48 47 46 45 44 43 42 40 38 37 37 36 36 35 34 35 33 33 33 33 34 34 33 33 34 34 30 31 32 31 26 26 24 23 24 25 26 25
59 58 57 55 54 52 51 51 50 49 48 47 46 46 44 41 41 41 40 40 39 38 37 36 36 36 34 34 34 37 33 33 31 32 33 31 31 29 29 26 25 27 29 28 28
60 60 59 59 58 56 55 54 54 54 52 49 50 49 48 46 45 44 44 44 43 41 38 39 40 35 35 39 39 36 35 33 34 35 34 34 33 34 32 30 30 30 30 29 29
62 62 61 60 61 59 58 57 57 57 56 55 54 53 52 51 50 48 47 47 45 42 42 41 44 34 38 36 37 35 35 31 33 34 39 38 37 36 36 31 33 33 33 32 32
65 62 61 62 62 59 58 57 58 59 62 58 57 57 55 55 53 52 51 49 46 45 43 44 42 37 35 35 34 35 36 34 38 40 42 43 42 39 37 33 34 36 36 36 34
62 66 64 63 61 62 59 59 58 59 62 65 60 60 59 56 58 55 50 50 48 46 42 41 41 35 36 37 35 37 38 37 39 43 43 47 48 42 38 35 37 36 36 34 33
55 59 68 69 65 62 60 62 61 60 66 67 68 64 60 58 57 55 51 48 47 43 42 42 40 39 38 34 37 39 41 41 43 46 48 49 50 41 41 36 37 37 36 35 34
57 55 51 61 67 68 62 63 66 65 67 66 63 60 59 58 59 56 50 49 48 47 43 43 44 39 38 38 39 43 45 45 46 47 54 49 49 46 45 38 40 35 34 32 33
58 58 56 59 58 58 58 63 74 77 67 68 68 67 61 56 53 53 48 44 41 41 43 41 43 44 40 40 42 43 43 46 53 56 54 52 52 47 45 37 34 32 33 35 35
55 54 55 57 56 58 59 65 73 61 72 72 74 74 67 61 59 54 50 48 45 44 45 45 45 43 44 44 49 51 48 49 55 56 54 51 51 49 39 35 32 31 32 33 34
59 55 56 53 54 57 64 70 69 63 64 65 72 73 71 66 60 57 54 52 51 50 46 48 50 51 50 53 54 56 54 42 48 50 54 51 46 43 37 32 32 32 31 31 31
62 59 56 56 55 58 63 72 65 61 59 60 63 66 69 67 63 61 59 57 55 51 52 53 53 53 56 54 55 57 55 52 50 52 52 50 47 37 30 33 34 33 31 31 33
62 62 57 50 65 69 73 67 60 62 61 60 60 59 60 66 63 61 59 59 57 53 52 53 56 58 58 55 49 49 51 49 49 51 52 51 48 36 35 38 39 37 36 35 35
64 62 58 58 73 72 74 58 57 58 59 56 56 54 58 62 62 65 63 61 63 61 60 56 56 58 56 54 50 51 50 50 52 52 51 51 48 46 42 40 42 43 43 42 42
67 64 64 64 62 61 63 64 64 65 60 56 55 55 60 61 61 57 60 58 58 58 54 55 54 52 52 55 54 52 45 44 45 48 49 54 47 48 45 45 46 48 48 48 49
68 70 76 65 63 57 61 67 67 67 67 65 59 55 59 61 57 55 57 59 55 50 51 54 55 52 52 47 48 46 45 45 47 48 46 48 45 48 48 49 52 53 52 56 59
66 71 77 73 72 64 62 60 69 72 70 72 71 65 61 58 58 55 56 57 57 52 53 56 55 53 49 48 49 53 50 49 48 47 52 45 50 51 52 56 57 58 60 63 62
66 67 71 75 68 63 59 66 67 67 69 70 69 65 70 70 62 58 55 56 58 57 57 59 56 55 53 50 54 55 56 56 56 53 56 53 55 58 60 59 60 59 62 64 64
68 67 68 71 73 70 68 63 63 65 68 68 66 64 66 66 65 64 67 66 65 64 59 58 55 56 58 57 56 62 53 57 58 59 56 58 55 56 60 63 63 63 61 63 61
Wind_Direction
201 201 202 200 200 201 200 199 200 201 202 203 206 206 210 220 220 225 226 225 225 227 227 232 234 238 252 267 277 286 293 295 302 306 304 302 293 272 265 269 268 281 286 285 285
203 203 204 205 208 208 207 207 207 209 211 216 216 219 221 226 234 238 240 239 238 238 240 242 247 253 260 269 278 284 287 291 297 301 296 294 281 268 271 275 266 266 276 276 265
207 207 208 210 211 213 215 216 215 215 216 220 223 227 229 233 236 243 244 242 243 245 249 252 255 259 265 270 275 279 284 289 295 296 290 284 275 272 278 270 260 262 270 277 275
212 212 212 213 216 218 220 220 222 223 224 224 227 230 233 237 241 247 249 251 251 251 253 257 262 264 267 271 273 276 281 288 295 294 285 278 272 273 280 274 265 263 261 271 276
217 217 218 218 219 221 223 224 225 227 231 231 232 233 235 239 243 247 253 256 259 259 260 260 261 264 267 270 273 277 280 283 292 292 280 275 275 273 278 274 268 264 262 265 269
221 221 221 222 224 224 225 227 229 231 234 236 237 237 239 243 246 247 252 258 263 264 264 264 267 269 270 272 274 277 280 282 286 287 277 276 278 276 273 269 265 267 268 268 267
224 224 224 225 226 227 228 230 231 234 236 239 241 241 242 246 248 251 253 257 262 266 266 267 271 272 273 274 276 277 278 279 280 280 275 275 277 272 267 266 265 269 270 270 269
228 227 228 228 229 231 232 233 235 236 238 240 243 245 245 248 251 254 256 260 263 266 268 272 271 272 275 275 275 276 276 277 276 274 273 275 273 269 266 266 266 266 266 268 270
229 229 230 232 233 234 235 236 238 240 241 243 245 247 248 249 254 256 258 261 264 266 269 269 271 273 274 275 275 274 273 272 275 272 270 271 271 267 265 264 264 265 268 269 273
231 232 231 232 234 236 238 239 241 241 243 245 247 249 250 251 252 256 259 262 264 267 268 270 271 272 275 275 272 269 271 274 272 267 267 265 266 264 264 262 265 269 271 273 276
235 233 233 234 235 236 238 241 242 244 244 246 247 249 251 252 254 256 259 262 264 265 268 270 271 275 271 268 269 271 271 269 270 268 264 262 260 264 259 262 269 270 273 278 277
234 236 237 236 237 237 239 242 244 246 244 246 247 249 251 254 255 257 259 261 263 265 266 270 274 271 265 267 269 269 269 270 265 264 263 264 263 260 262 260 269 272 275 277 277
232 235 238 238 240 241 241 242 245 247 248 244 248 249 251 253 255 257 257 260 263 266 270 270 268 263 264 264 268 270 269 268 266 266 265 267 264 260 259 264 272 275 274 274 273
237 231 233 238 240 242 246 244 245 247 251 248 245 249 250 252 253 255 258 262 265 266 265 264 264 266 263 264 266 267 268 268 269 270 271 267 265 260 258 258 270 274 271 269 267
231 237 235 236 237 238 240 243 245 247 250 250 249 247 249 252 256 255 258 259 261 260 259 261 260 261 263 263 264 268 269 269 270 271 270 267 270 265 262 266 272 274 269 265 263
234 234 233 237 239 235 238 244 244 243 247 253 253 252 248 250 254 259 257 257 256 259 259 258 260 260 261 262 262 267 271 269 269 269 266 270 270 268 272 274 270 270 267 262 262
241 237 236 234 235 237 236 243 244 242 255 254 255 254 252 250 251 253 256 257 259 258 259 259 259 259 260 259 260 268 273 272 270 265 269 275 271 267 272 275 269 264 260 260 263
245 247 239 233 240 236 243 243 249 247 250 259 256 254 254 253 253 252 252 254 256 257 259 261 265 265 266 263 264 264 268 271 271 271 274 272 270 272 269 270 265 265 262 260 265
241 243 243 237 240 241 244 245 248 249 249 253 256 257 258 256 256 257 254 255 255 255 260 264 260 261 261 263 261 261 264 274 270 266 270 272 273 271 269 270 269 268 270 268 265
240 239 243 240 241 240 242 242 246 249 251 249 250 255 255 256 258 259 259 257 259 262 263 265 266 267 265 262 260 262 267 268 266 266 271 273 273 272 268 268 272 275 274 275 274
234 235 238 241 235 236 238 241 244 247 250 249 250 251 252 255 256 256 259 259 258 260 264 265 267 269 266 261 264 265 263 263 264 262 265 268 270 265 262 270 277 275 277 280 283
229 227 232 237 233 232 236 235 235 241 242 244 246 246 250 251 254 257 258 258 262 261 261 262 267 264 263 262 260 258 257 257 259 263 262 264 264 261 265 270 272 276 282 284 281
227 223 221 227 235 236 234 233 237 239 242 243 245 250 251 254 256 253 254 255 256 258 257 258 259 258 256 256 257 259 264 267 266 264 265 261 267 263 268 275 279 280 281 282 280
226 223 220 225 232 239 244 239 240 239 242 242 245 249 247 248 251 249 250 253 251 253 257 254 251 253 253 259 260 258 259 259 260 260 266 265 265 264 269 273 276 278 280 281 281
230 226 223 230 230 231 242 247 240 242 245 243 243 243 245 244 252 246 252 250 250 256 259 254 255 254 248 255 259 260 258 256 259 268 262 270 264 264 267 268 273 278 280 286 283
232 231 229 230 229 228 239 245 247 240 241 242 244 243 243 248 253 248 255 253 254 259 259 257 262 259 253 254 256 256 257 260 257 257 261 266 266 265 270 272 274 278 279 280 277
233 234 234 230 229 235 242 238 248 246 244 243 246 246 247 248 246 247 251 250 251 252 255 253 257 258 256 257 256 255 260 262 263 262 262 261 267 266 270 271 274 276 276 276 275
Height
5824 5828 5832 5834 5837 5839 5841 5843 5846 5848 5850 5851 5853 5855 5856 5858 5858 5860 5860 5862 5862 5863 5863 5864 5866 5867 5867 5868 5868 5867 5868 5868 5868 5866 5865 5864 5864 5864 5863 5863 5863 5862 5862 5862 5860
5820 5823 5827 5830 5834 5836 5838 5840 5842 5844 5846 5849 5850 5852 5854 5856 5857 5858 5859 5859 5860 5861 5862 5862 5864 5864 5865 5866 5866 5865 5864 5865 5865 5864 5862 5861 5861 5861 5861 5861 5861 5860 5860 5860 5859
5814 5818 5822 5825 5828 5831 5834 5837 5839 5841 5842 5845 5847 5849 5851 5852 5854 5855 5856 5857 5857 5858 5859 5860 5861 5862 5862 5863 5862 5862 5861 5860 5861 5860 5859 5858 5858 5858 5858 5858 5858 5857 5856 5856 5856
5809 5812 5816 5819 5823 5826 5829 5832 5835 5837 5839 5840 5842 5845 5847 5848 5851 5851 5852 5853 5854 5854 5855 5856 5857 5858 5858 5859 5858 5858 5857 5857 5856 5856 5855 5855 5855 5855 5855 5855 5855 5855 5854 5853 5852
5803 5806 5810 5813 5817 5820 5824 5827 5829 5832 5834 5836 5838 5839 5842 5844 5846 5847 5848 5849 5850 5851 5851 5852 5853 5854 5854 5854 5854 5854 5853 5852 5852 5851 5851 5851 5851 5852 5851 5851 5850 5850 5850 5850 5850
5795 5799 5803 5807 5811 5813 5816 5820 5823 5826 5828 5830 5832 5834 5837 5839 5840 5842 5843 5845 5845 5846 5847 5848 5849 5849 5850 5850 5850 5849 5848 5848 5847 5847 5846 5846 5847 5847 5848 5847 5846 5846 5846 5846 5845
5786 5791 5795 5799 5803 5807 5810 5813 5816 5819 5822 5824 5827 5828 5831 5833 5834 5836 5838 5839 5840 5841 5842 5843 5843 5844 5844 5844 5844 5844 5843 5842 5842 5842 5842 5840 5842 5842 5842 5842 5842 5841 5841 5841 5841
5777 5782 5786 5791 5794 5798 5801 5805 5808 5811 5814 5817 5820 5822 5825 5826 5828 5830 5831 5833 5834 5835 5836 5836 5837 5838 5838 5837 5838 5838 5837 5837 5836 5835 5836 5834 5836 5836 5836 5836 5837 5837 5836 5836 5836
5767 5772 5777 5781 5785 5790 5793 5797 5800 5803 5806 5809 5812 5814 5818 5821 5822 5823 5824 5826 5827 5828 5829 5830 5831 5831 5832 5831 5831 5831 5831 5830 5829 5829 5828 5828 5827 5830 5829 5830 5830 5831 5831 5831 5831
5757 5762 5766 5771 5776 5780 5784 5788 5791 5793 5796 5799 5803 5807 5811 5814 5814 5815 5817 5818 5819 5820 5822 5823 5823 5824 5826 5824 5824 5821 5824 5824 5824 5823 5820 5821 5822 5823 5822 5824 5825 5825 5824 5824 5825
5746 5751 5755 5760 5765 5770 5774 5778 5782 5784 5787 5791 5793 5796 5800 5803 5806 5808 5808 5809 5810 5812 5814 5814 5814 5819 5817 5815 5815 5816 5816 5817 5816 5815 5813 5814 5814 5813 5815 5817 5818 5818 5818 5818 5818
5734 5740 5745 5749 5755 5759 5764 5767 5770 5772 5775 5778 5781 5786 5790 5793 5796 5798 5800 5801 5802 5804 5804 5807 5807 5810 5807 5808 5808 5809 5809 5811 5808 5807 5804 5805 5806 5807 5806 5811 5810 5810 5810 5810 5810
5721 5727 5733 5738 5744 5750 5754 5756 5757 5759 5760 5768 5771 5775 5780 5782 5785 5788 5789 5791 5794 5795 5798 5797 5798 5799 5801 5800 5800 5801 5800 5803 5800 5797 5797 5796 5796 5799 5801 5802 5802 5802 5802 5801 5802
5707 5712 5719 5725 5734 5741 5746 5743 5745 5747 5746 5755 5762 5762 5767 5771 5772 5777 5780 5784 5785 5787 5787 5787 5788 5792 5792 5792 5793 5791 5791 5793 5791 5789 5789 5785 5782 5789 5793 5796 5795 5794 5793 5793 5794
5695 5700 5705 5713 5719 5728 5733 5728 5734 5736 5734 5743 5745 5752 5757 5760 5763 5766 5771 5773 5775 5777 5779 5780 5780 5781 5783 5786 5784 5783 5783 5784 5783 5781 5777 5776 5773 5781 5785 5787 5786 5785 5785 5786 5787
5681 5687 5692 5698 5704 5716 5718 5716 5718 5719 5723 5726 5731 5737 5745 5749 5752 5754 5760 5763 5766 5766 5769 5770 5769 5772 5774 5776 5775 5774 5773 5774 5772 5770 5763 5770 5771 5769 5771 5779 5776 5777 5778 5778 5778
5666 5672 5677 5685 5695 5701 5702 5698 5697 5699 5718 5717 5718 5721 5730 5737 5741 5744 5748 5752 5755 5756 5757 5761 5761 5761 5764 5765 5765 5765 5764 5762 5758 5755 5756 5758 5758 5763 5761 5765 5766 5767 5768 5769 5769
5653 5656 5663 5674 5680 5686 5683 5677 5669 5704 5703 5703 5704 5708 5715 5724 5729 5734 5737 5740 5745 5748 5747 5748 5751 5753 5756 5757 5753 5752 5754 5752 5748 5747 5747 5746 5745 5749 5756 5756 5757 5758 5759 5760 5761
5639 5643 5648 5658 5663 5669 5665 5650 5668 5693 5691 5692 5691 5695 5702 5710 5717 5721 5726 5730 5733 5735 5736 5735 5737 5738 5742 5742 5742 5739 5739 5746 5739 5738 5734 5734 5738 5741 5744 5747 5747 5748 5750 5751 5753
5624 5628 5636 5645 5649 5652 5642 5639 5667 5671 5672 5673 5678 5685 5690 5697 5702 5706 5711 5718 5721 5726 5722 5722 5724 5725 5726 5728 5729 5728 5731 5731 5729 5727 5726 5727 5727 5732 5735 5735 5736 5738 5739 5741 5743
5607 5611 5627 5633 5633 5626 5621 5635 5655 5653 5656 5661 5669 5672 5678 5678 5687 5691 5696 5703 5707 5711 5709 5709 5709 5710 5711 5713 5719 5718 5716 5717 5718 5717 5715 5717 5719 5724 5723 5724 5726 5728 5729 5731 5732
5590 5596 5613 5617 5610 5607 5609 5636 5634 5638 5640 5647 5652 5659 5663 5665 5670 5677 5683 5688 5692 5694 5694 5697 5695 5696 5698 5699 5701 5701 5703 5704 5703 5707 5708 5707 5710 5711 5713 5715 5716 5717 5718 5719 5720
5570 5582 5594 5597 5590 5594 5605 5612 5617 5622 5629 5635 5640 5645 5650 5652 5655 5664 5668 5675 5675 5678 5680 5683 5681 5685 5687 5686 5686 5688 5696 5696 5697 5695 5696 5695 5700 5701 5704 5704 5705 5706 5706 5706 5705
5554 5561 5572 5576 5578 5585 5589 5597 5602 5611 5614 5622 5631 5631 5636 5641 5644 5649 5655 5657 5662 5666 5667 5666 5666 5671 5673 5678 5677 5679 5682 5683 5681 5681 5685 5684 5691 5691 5692 5692 5691 5691 5693 5692 5691
5535 5546 5555 5558 5567 5573 5577 5584 5590 5594 5602 5607 5611 5618 5624 5626 5630 5637 5643 5643 5647 5652 5652 5652 5653 5658 5665 5666 5664 5663 5667 5668 5667 5674 5667 5680 5676 5677 5679 5678 5678 5679 5679 5679 5677
5521 5528 5538 5546 5553 5559 5563 5569 5576 5583 5587 5593 5597 5607 5610 5612 5621 5627 5629 5631 5635 5637 5637 5637 5641 5643 5647 5653 5651 5648 5653 5652 5655 5659 5655 5664 5664 5660 5663 5667 5666 5666 5666 5664 5662
5507 5514 5519 5529 5537 5540 5548 5557 5563 5570 5573 5580 5587 5589 5592 5602 5607 5610 5610 5616 5616 5621 5624 5624 5627 5628 5631 5634 5634 5627 5643 5640 5642 5643 5646 5645 5657 5652 5648 5649 5651 5649 5648 5649 5647